Trenton Mercer Airport Trenton US
ICAO: KTTN
IATA: TTN
Category: Medium
Scheduled Services: Yes

Elevation: 213 ft
TransAlt. 18000 ft.

Airport Communications:
PHILADELPHIA APP/DEP:123.8
ASOS:133.7
ATIS:133.7
CTAF:120.7
GND/CLNC DEL:121.9
ARNG OPS:40.1
TWR:120.7
UNICOM:122.95

KTTN Zoom In..

If you have problems with the map follow the link
https://www.worldairports.se/pages/airport.php?
ICAO=KTTN

Runways:

(A) RW 06 length 6006 ft width 150 ft
ILS 111.30 / hdg 58

(B) RW 16 length 4800 ft width 150 ft
---- / hdg 158

(C) RW 24 length 6006 ft width 150 ft
---- / hdg 238

(D) RW 34 length 4800 ft width 150 ft
---- / hdg 338

Location; KTTN
Day. 26 / Time. 22.53 Zulu
* Altimeter: 29.81
* Temperature: 06° c. 42.8°f.
* Wind from: KTT° Speed N kn.
Dewpoint: -02° c.
Visibility: 10 Statute Miles.
Clouds: Overcast 4700 ft.

KTTN 262253Z 28010G15KT 10SM OVC047 06/M02 A2981 RMK AO2 SLP090 T00611022


Wind From KTT°
Speed N kn.

 
 
jpsmedia worldairports.se 2020   terms of use